Location: Bailleul
(50.3375°N, 2.8513°E)
Time: 11:17:14
(UTC+00:00)

NOSS 0 Rocket - Pass Details

Date: 16 June 2021
Orbit: 934 x 956 km, 70.0° (Epoch: 28 July)

Event Time Altitude Azimuth Distance (km) Brightness Sun altitude
Exits shadow 23:45:22 15° 220° (SW) 2,307 5.5 -16.3°
Maximum altitude 23:50:34 73° 303° (WNW) 996 4.1 -16.3°
Drops below altitude 10° 23:56:50 10° 29° (NNE) 2,691 7.3 -16.3°
Sets 23:59:24 0° 31° (NNE) 3,643 8.1 -16.2°
